Weather History for Zeltweg, Austria

Change the Weather History Date:

Wednesday, October 3, 2012

  Actual Average (LOWG) Record (LOWG)
Temperature  
Mean Temperature 52 °F -  
Max Temperature 66 °F 64 °F 80 °F (2006)
Min Temperature 37 °F 47 °F 35 °F (2013)
Degree Days  
Heating Degree Days 14    
Growing Degree Days 2 (Base 50)    
Moisture  
Dew Point 43 °F    
Average Humidity 73    
Maximum Humidity 100    
Minimum Humidity 37    
Precipitation  
Precipitation 0.00 in - - ()
Sea Level Pressure  
Sea Level Pressure 30.11 in    
Wind  
Wind Speed 2 mph ()    
Max Wind Speed 4 mph    
Max Gust Speed -    
Visibility 8.6 miles    
Events Fog    
Averages and records for this station are not official NWS values.
T = Trace of Precipitation, MM = Missing Value Source: Averaged Metar Reports

Daily Weather History Graph

Daily Weather History Graph

Search for Another Location

Airport:

Trip Planner

Search our weather history database for the weather conditions in past years. The results will help you decide how hot, cold, wet, or windy it might be!

Date:

Astronomy

Oct. 03, 2012 Rise Set
Actual Time 7:02 AM CEST 6:36 PM CEST
Civil Twilight 6:32 AM CEST 7:06 PM CEST
Nautical Twilight 5:56 AM CEST 7:41 PM CEST
Astronomical Twilight 5:21 AM CEST 8:17 PM CEST
Moon 8:00 PM CEST (10/3) 10:25 AM CEST (10/3)
Length of Visible Light 12h 34m
Length of Day
11h 33m
Waning Gibbous, 90% of the Moon is Illuminated
Oct 3
Waning Gibbous
Oct 8
Last Quarter
Oct 15
New
Oct 22
First Quarter
Oct 29
Full

Hourly Weather History & Observations

Time (CEST) Temp. Windchill Dew Point Humidity Pressure Visibility Wind Dir Wind Speed Gust Speed Precip Events Conditions
4:50 AM 42.8 °F - 42.8 °F 100% 30.12 in 7.5 mi South 2.3 mph - N/A   Mostly Cloudy
5:50 AM 41.0 °F - 39.2 °F 93% 30.12 in 6.2 mi SSE 2.3 mph - N/A   Scattered Clouds
6:50 AM 37.4 °F 34.9 °F 35.6 °F 93% 30.12 in 6.2 mi WSW 3.5 mph - N/A   Scattered Clouds
7:20 AM 39.2 °F - 39.2 °F 100% 30.15 in 3.7 mi Variable 1.2 mph - N/A   Mostly Cloudy
7:50 AM 41.0 °F 39.0 °F 41.0 °F 100% 30.15 in 0.5 mi West 3.5 mph - N/A Fog Fog
8:20 AM 41.0 °F - 41.0 °F 100% 30.15 in 0.9 mi Variable 1.2 mph - N/A Fog Patches of Fog
8:50 AM 41.0 °F - 41.0 °F 100% 30.15 in 2.2 mi Variable 1.2 mph - N/A Fog Patches of Fog
9:20 AM 42.8 °F - 42.8 °F 100% 30.15 in 3.7 mi Variable 1.2 mph - N/A   Partly Cloudy
9:50 AM 48.2 °F - 44.6 °F 87% 30.15 in 12.4 mi Variable 1.2 mph - N/A   Partly Cloudy
10:20 AM 48.2 °F - 42.8 °F 82% 30.15 in 24.9 mi Variable 1.2 mph - N/A   Partly Cloudy
10:50 AM 51.8 °F - 44.6 °F 76% 30.15 in 31.1 mi Variable 1.2 mph - N/A   Partly Cloudy
11:20 AM 53.6 °F - 44.6 °F 72% 30.15 in 31.1 mi Variable 2.3 mph - N/A   Partly Cloudy
12:20 PM 57.2 °F - 44.6 °F 63% 30.12 in 31.1 mi Variable 2.3 mph - N/A   Partly Cloudy
12:50 PM 59.0 °F - 44.6 °F 59% 30.12 in 31.1 mi Variable 2.3 mph - N/A   Partly Cloudy
1:20 PM 60.8 °F - 42.8 °F 52% 30.09 in 31.1 mi Variable 2.3 mph - N/A   Partly Cloudy
1:50 PM 62.6 °F - 42.8 °F 48% 30.09 in 31.1 mi Variable 2.3 mph - N/A   Partly Cloudy
2:20 PM 64.4 °F - 41.0 °F 42% 30.09 in 31.1 mi Variable 2.3 mph - N/A   Partly Cloudy
2:50 PM 66.2 °F - 41.0 °F 40% 30.06 in 31.1 mi Variable 2.3 mph - N/A   Partly Cloudy
3:50 PM 66.2 °F - 39.2 °F 37% 30.06 in 31.1 mi Variable 3.5 mph - N/A   Partly Cloudy
4:20 PM 66.2 °F - 39.2 °F 37% 30.06 in 31.1 mi Variable 2.3 mph - N/A   Partly Cloudy
4:50 PM 66.2 °F - 41.0 °F 40% 30.06 in 31.1 mi Variable 1.2 mph - N/A   Partly Cloudy
5:20 PM 66.2 °F - 39.2 °F 37% 30.06 in 31.1 mi Variable 2.3 mph - N/A   Partly Cloudy
6:20 PM 57.2 °F - 48.2 °F 72% 30.06 in 31.1 mi Variable 3.5 mph - N/A   Partly Cloudy
6:50 PM 53.6 °F - 46.4 °F 77% 30.06 in 31.1 mi Variable 3.5 mph - N/A   Partly Cloudy
7:50 PM 55.4 °F - 48.2 °F 77% 30.09 in 18.6 mi Variable 2.3 mph - N/A   Partly Cloudy
8:50 PM 51.8 °F - 46.4 °F 82% 30.09 in 18.6 mi Calm Calm - N/A   Scattered Clouds
9:50 PM 50.0 °F - 44.6 °F 82% 30.09 in 18.6 mi Calm Calm - N/A   Partly Cloudy
10:50 PM 46.4 °F - 44.6 °F 93% 30.09 in 12.4 mi Calm Calm - N/A   Partly Cloudy